Starlink 31081

operational
NORAD ID: 58632 Int'l Des: 2023-203 Owner: SPXS Country: US Constellation: starlink
LEOCIRCULAR

About Starlink 31081

Description loading...

Live Position

Loading 3D Globe...

Upcoming Passes

Altitude History

Altitude vs Time

uPlot chart will show altitude changes over time

Two-Line Element Set

1 58632U 23203Q 25303.78429799 .00000032 00000-0 10677-4 0 9992
2 58632 43.0021 84.2055 0001341 264.8811 95.1887 15.27579916104880
Epoch: Oct 30, 2025 • Age: 6 hours

Current Status

Altitude 489.0 km
Velocity 7.62 km/s
Sub-Earth Point -25.93°S, 1.96°W
Launch Date Dec 23, 2023
Age 1.8 years
Type internet

Technical Details

Classification Payload
Mass 730.00 kg
Dry Mass 700.00 kg
Total Mass 730.00 kg
Length 0.30 m
Diameter 4.10 m
Span 29.00 m
Shape Box + pan
Manufacturer SPXS
Bus Type Starlink V2M
Phase Status In Orbit
Owner/State SPXS/US

Large Constellations

Loading constellations...